KA0QOK Weather Reports


time (UTC)temp
F
wind
direction
speed
knots
gust
knots
rain 1hr
in
rain 24hr
in
rain mn
in
humidity
%
barometer
mb
20260504081502 57 184 4.3 13.0 0.00 0.00 0.00 41 998.4
20260504080106 57 180 7.0 15.6 0.00 0.00 0.00 41 998.7
20260504044537 57 181 1.7 8.7 0.00 0.00 0.00 42 1002.4
20260504043033 57 177 2.6 8.7 0.00 0.00 0.00 42 1002.7
20260504041529 57 174 0.9 6.1 0.00 0.00 0.00 42 1003.1
20260504040027 57 174 0.0 5.2 0.00 0.00 0.00 42 1003.4
20260504034524 56 223 0.9 3.5 0.00 0.00 0.00 42 1003.8
20260504033020 57 227 0.0 1.7 0.00 0.00 0.00 41 1004.0
20260504031523 58 227 0.0 1.7 0.00 0.00 0.00 39 1004.4
20260504030016 59 227 0.0 0.9 0.00 0.00 0.00 37 1004.4
20260504024517 60 227 0.0 0.9 0.00 0.00 0.00 35 1004.6
20260504023012 61 227 0.0 2.6 0.00 0.00 0.00 34 1004.8
20260504021510 62 190 0.9 7.8 0.00 0.00 0.00 32 1004.8
20260504020009 62 219 0.0 3.5 0.00 0.00 0.00 31 1004.8
20260504014510 63 223 0.0 3.5 0.00 0.00 0.00 29 1004.8
20260504013007 64 225 0.0 6.1 0.00 0.00 0.00 28 1004.8
20260504011506 65 232 0.0 7.8 0.00 0.00 0.00 28 1004.9
20260504010005 66 215 1.7 8.7 0.00 0.00 0.00 26 1004.9
20260504004505 67 238 3.5 10.4 0.00 0.00 0.00 26 1005.0
20260504003001 67 212 6.1 20.0 0.00 0.00 0.00 25 1005.1
20260504001600 68 225 4.3 17.4 0.00 0.00 0.00 25 1005.1
20260504001501 68 258 7.0 17.4 0.00 0.00 0.00 25 1005.1
20260504000138 68 186 1.7 17.4 0.00 0.00 0.00 26 1005.3
20260503234602 68 220 7.0 13.9 0.00 0.00 0.00 24 1005.3
20260503233054 69 211 7.0 13.0 0.00 0.00 0.00 23 1005.3
20260503231553 70 257 4.3 13.9 0.00 0.00 0.00 23 1005.5
20260503230052 70 249 4.3 13.9 0.00 0.00 0.00 23 1005.5
20260503224550 71 272 1.7 20.0 0.00 0.00 0.00 23 1005.8
20260503223049 70 242 7.0 16.5 0.00 0.00 0.00 22 1005.7
20260503221554 70 193 3.5 13.9 0.00 0.00 0.00 22 1005.9
20260503220047 70 234 0.9 13.9 0.00 0.00 0.00 23 1005.9
20260503214546 71 234 2.6 14.8 0.00 0.00 0.00 23 1006.2
20260503213015 71 326 7.0 23.5 0.00 0.00 0.00 23 1006.4
20260503211516 69 220 4.3 15.6 0.00 0.00 0.00 24 1006.5
20260503210011 69 268 7.8 16.5 0.00 0.00 0.00 23 1006.8
20260503204510 69 5 5.2 18.2 0.00 0.00 0.00 25 1006.9
20260503203018 69 256 4.3 16.5 0.00 0.00 0.00 22 1007.0
20260503201508 69 298 2.6 20.0 0.00 0.00 0.00 24 1007.0
20260503200003 68 355 2.6 14.8 0.00 0.00 0.00 23 1007.2
20260503194502 68 328 5.2 17.4 0.00 0.00 0.00 25 1007.3
20260503193100 68 302 2.6 18.2 0.00 0.00 0.00 26 1007.3
20260503191609 68 215 7.8 26.1 0.00 0.00 0.00 27 1007.6
20260503190158 68 323 6.1 22.6 0.00 0.00 0.00 27 1007.6
20260503184556 68 311 6.1 24.3 0.00 0.00 0.00 28 1007.7
20260503183054 67 286 5.2 21.7 0.00 0.00 0.00 27 1007.8
20260503181602 67 360 6.1 14.8 0.00 0.00 0.00 32 1007.9
20260503180049 67 343 8.7 17.4 0.00 0.00 0.00 34 1008.0
20260503174546 66 355 5.2 25.2 0.00 0.00 0.00 35 1007.9
20260503173055 66 320 5.2 18.2 0.00 0.00 0.00 34 1008.0
20260503171544 66 255 7.8 16.5 0.00 0.00 0.00 36 1008.2